This demonstration page uses our WeatherBlox Daily Observations layout. Learn more.

Left ArrowRight Arrow

Hourly Observations for May 20, 2018

Temp ( °F °C ) Dew Point ( °F °C ) Humidity (%) Winds ( mph kmh ) Pressure ( in mb ) Visibility ( mi km ) Precip ( " mm )
12:59 am 00:59 Cloudy 72 22.2 68 20 87 87 SSW 8 13 30.13 1020 9 14 0.00 0.00
1:23 am 01:23 Cloudy 72 22.2 69 20.6 91 91 SSW 8 13 30.12 1020 8 13 0.00 0.00
1:59 am 01:59 Cloudy 73 22.8 69 20.6 87 87 SSW 10 17 30.12 1020 8 13 0.00 0.00
2:12 am 02:12 Cloudy 73 22.8 69 20.6 87 87 SSW 9 15 30.12 1020 8 13 0.00 0.00
2:59 am 02:59 Cloudy 73 22.8 69 20.6 87 87 SSW 10 17 30.12 1020 8 13 0.00 0.00
3:08 am 03:08 Cloudy 73 22.8 69 20.6 87 87 SSW 12 19 30.12 1020 8 13 0.00 0.00
3:59 am 03:59 Mostly Cloudy 73 22.8 69 20.6 87 87 SSW 8 13 30.11 1020 9 14 0.00 0.00
4:59 am 04:59 Cloudy 73 22.8 69 20.6 87 87 SSW 10 17 30.11 1020 10 16 0.00 0.00
5:13 am 05:13 Cloudy 73 22.8 69 20.6 87 87 SSW 10 17 30.12 1020 10 16 0.00 0.00
5:44 am 05:44 Cloudy 73 22.8 69 20.6 87 87 SW 8 13 30.12 1020 10 16 0.00 0.00
5:59 am 05:59 Cloudy 73 22.8 69 20.6 87 87 SW 12 19 30.11 1020 9 14 0.00 0.00
6:23 am 06:23 Cloudy 73 22.8 69 20.6 87 87 SW 10 17 30.12 1020 9 14 0.00 0.00
6:59 am 06:59 Cloudy 73 22.8 69 20.6 87 87 SSW 10 17 30.12 1020 10 16 0.00 0.00
7:12 am 07:12 Cloudy 73 22.8 69 20.6 87 87 SSW 13 20 30.12 1020 9 14 0.00 0.00
7:49 am 07:49 Cloudy 74 23.3 70 21.1 88 88 SSW 15 24 30.12 1020 9 14 0.00 0.00
7:59 am 07:59 Cloudy 74 23.3 69 20.6 85 85 SW 13 20 30.12 1020 9 14 0.00 0.00
8:59 am 08:59 Cloudy 75 23.9 69 20.6 82 82 SW 12 19 30.12 1020 10 16 0.00 0.00
9:59 am 09:59 Mostly Cloudy 77 25 69 20.6 77 77 SW 15 24 30.12 1020 10 16 0.00 0.00
10:20 am 10:20 Cloudy 78 25.6 69 20.6 74 74 SW 15 24 30.12 1020 10 16 0.00 0.00
10:40 am 10:40 Cloudy 79 26.1 69 20.6 72 72 SW 12 19 30.12 1020 10 16 0.00 0.00
10:59 am 10:59 Mostly Cloudy 78 25.6 70 21.1 76 76 SW 9 15 30.11 1020 10 16 0.00 0.00
11:17 am 11:17 Mostly Cloudy 80 26.7 70 21.1 71 71 SW 12 19 30.12 1020 10 16 0.00 0.00
11:59 am 11:59 Cloudy 80 26.7 69 20.6 69 69 SW 10 17 30.11 1020 10 16 0.00 0.00
12:59 pm 12:59 Mostly Cloudy 82 27.8 70 21.1 67 67 WSW 12 19 30.10 1019 10 16 0.00 0.00
1:59 pm 13:59 Mostly Cloudy 81 27.2 70 21.1 69 69 W 8 13 30.08 1019 10 16 0.00 0.00
2:06 pm 14:06 Mostly Cloudy 81 27.2 70 21.1 69 69 W 13 20 30.09 1019 10 16 0.00 0.00
2:19 pm 14:19 Mostly Cloudy 82 27.8 70 21.1 67 67 W 10 17 30.06 1018 10 16 0.00 0.00
2:59 pm 14:59 Mostly Cloudy 82 27.8 69 20.6 65 65 W 12 19 30.07 1018 10 16 0.00 0.00
3:59 pm 15:59 Mostly Cloudy 83 28.3 69 20.6 63 63 W 16 26 30.06 1018 10 16 0.00 0.00
4:59 pm 16:59 Mostly Cloudy 84 28.9 68 20 59 59 W 9 15 30.05 1018 10 16 0.00 0.00
5:59 pm 17:59 Mostly Cloudy 84 28.9 68 20 59 59 W 10 17 30.04 1017 10 16 0.00 0.00
6:59 pm 18:59 Mostly Cloudy 82 27.8 68 20 63 63 SW 10 17 30.05 1018 10 16 0.00 0.00
7:59 pm 19:59 Mostly Cloudy 81 27.2 68 20 65 65 WSW 8 13 30.06 1018 10 16 0.00 0.00
8:59 pm 20:59 Mostly Cloudy 78 25.6 69 20.6 74 74 SSW 6 9 30.06 1018 10 16 0.00 0.00
9:59 pm 21:59 Mostly Cloudy 77 25 69 20.6 77 77 SW 6 9 30.08 1019 10 16 0.00 0.00
10:59 pm 22:59 Mostly Cloudy 76 24.4 69 20.6 79 79 SW 6 9 30.09 1019 10 16 0.00 0.00
11:59 pm 23:59 Cloudy 76 24.4 70 21.1 82 82 SSW 7 11 30.08 1019 10 16 0.00 0.00

Powered by AerisWeather